QPF
0.01 0.01 0.01 0.02 0.02 0.02 0.01 0.01 0.01 0.01 0.01 0.01 0.01 0.01 0.01 0.01 0.01 0.01 0.01 0.01 0.01 0.02 0.01 0.01 0.01 0.01 0.01 0.02 0.02 0.02 0.02 0.01 0.01 0.01 0.01 0.02 0.03 0.02 0.01 0.01 0.01 0.02 0.02
0.00 0.01 0.01 0.03 0.02 0.01 0.01 0.01 0.01 0.02 0.02 0.01 0.01 0.01 0.01 0.01 0.01 0.01 0.01 0.01 0.01 0.02 0.02 0.01 0.01 0.01 0.01 0.01 0.02 0.02 0.03 0.02 0.02 0.01 0.01 0.01 0.01 0.01 0.01 0.02 0.01 0.01 0.03
0.01 0.00 0.01 0.02 0.01 0.01 0.01 0.01 0.01 0.02 0.03 0.02 0.02 0.01 0.01 0.01 0.00 0.01 0.00 0.00 0.01 0.02 0.03 0.02 0.02 0.02 0.01 0.01 0.01 0.02 0.03 0.04 0.03 0.02 0.02 0.02 0.02 0.01 0.02 0.02 0.02 0.02 0.02
0.01 0.00 0.01 0.02 0.01 0.01 0.01 0.02 0.02 0.03 0.03 0.02 0.02 0.02 0.02 0.02 0.01 0.00 0.00 0.00 0.01 0.02 0.04 0.04 0.03 0.02 0.01 0.01 0.01 0.02 0.03 0.04 0.04 0.04 0.04 0.03 0.02 0.03 0.02 0.03 0.03 0.03 0.02
0.00 0.00 0.00 0.01 0.01 0.01 0.02 0.03 0.03 0.03 0.03 0.02 0.02 0.02 0.02 0.01 0.01 0.01 0.01 0.01 0.00 0.01 0.03 0.05 0.05 0.04 0.03 0.02 0.01 0.02 0.02 0.03 0.04 0.04 0.05 0.05 0.03 0.03 0.04 0.04 0.03 0.03 0.03
0.00 0.01 0.01 0.02 0.02 0.02 0.02 0.02 0.03 0.04 0.05 0.04 0.03 0.03 0.02 0.02 0.01 0.01 0.01 0.01 0.01 0.02 0.02 0.02 0.05 0.06 0.05 0.04 0.02 0.02 0.02 0.02 0.02 0.02 0.03 0.03 0.03 0.03 0.03 0.03 0.04 0.04 0.04
0.00 0.01 0.02 0.02 0.02 0.02 0.02 0.02 0.03 0.05 0.06 0.06 0.04 0.03 0.03 0.02 0.01 0.01 0.01 0.01 0.01 0.01 0.02 0.02 0.03 0.04 0.03 0.03 0.03 0.03 0.03 0.02 0.02 0.01 0.01 0.02 0.02 0.02 0.02 0.03 0.04 0.04 0.04
0.00 0.00 0.01 0.01 0.01 0.01 0.02 0.02 0.03 0.03 0.04 0.04 0.04 0.04 0.03 0.02 0.01 0.01 0.01 0.01 0.01 0.01 0.01 0.03 0.03 0.02 0.01 0.01 0.02 0.02 0.03 0.04 0.03 0.01 0.01 0.01 0.01 0.01 0.02 0.03 0.05 0.07 0.04
0.00 0.01 0.01 0.01 0.00 0.01 0.01 0.02 0.02 0.02 0.02 0.03 0.03 0.03 0.03 0.02 0.01 0.01 0.01 0.01 0.01 0.01 0.01 0.01 0.03 0.02 0.01 0.01 0.02 0.01 0.02 0.03 0.04 0.02 0.01 0.00 0.01 0.01 0.01 0.02 0.03 0.05 0.04
0.00 0.01 0.01 0.01 0.00 0.00 0.01 0.02 0.02 0.03 0.03 0.03 0.03 0.03 0.03 0.02 0.01 0.01 0.01 0.01 0.01 0.01 0.01 0.01 0.02 0.03 0.01 0.01 0.02 0.02 0.01 0.02 0.02 0.02 0.01 0.01 0.01 0.01 0.01 0.02 0.02 0.03 0.04
0.00 0.01 0.02 0.02 0.01 0.01 0.02 0.02 0.02 0.03 0.04 0.05 0.05 0.04 0.03 0.02 0.01 0.01 0.01 0.01 0.01 0.01 0.01 0.01 0.02 0.02 0.02 0.01 0.02 0.03 0.03 0.02 0.01 0.02 0.01 0.01 0.01 0.01 0.02 0.03 0.02 0.03 0.03
0.00 0.01 0.02 0.02 0.02 0.02 0.02 0.02 0.02 0.03 0.03 0.03 0.07 0.10 0.04 0.03 0.02 0.01 0.01 0.01 0.01 0.02 0.02 0.02 0.02 0.01 0.01 0.02 0.01 0.02 0.05 0.04 0.02 0.01 0.01 0.01 0.02 0.01 0.01 0.02 0.02 0.02 0.03
0.00 0.01 0.02 0.02 0.02 0.02 0.02 0.02 0.03 0.04 0.03 0.03 0.06 0.12 0.06 0.06 0.03 0.01 0.01 0.01 0.01 0.01 0.01 0.01 0.01 0.02 0.01 0.01 0.01 0.01 0.03 0.05 0.04 0.01 0.01 0.01 0.02 0.01 0.01 0.01 0.02 0.02 0.02
0.00 0.01 0.01 0.01 0.01 0.01 0.02 0.02 0.03 0.04 0.04 0.03 0.05 0.07 0.06 0.08 0.06 0.02 0.01 0.01 0.02 0.01 0.01 0.02 0.02 0.02 0.02 0.01 0.01 0.01 0.02 0.04 0.05 0.04 0.02 0.01 0.01 0.02 0.02 0.01 0.01 0.01 0.01
0.00 0.00 0.01 0.01 0.01 0.01 0.01 0.01 0.02 0.03 0.03 0.04 0.04 0.05 0.05 0.05 0.06 0.05 0.03 0.02 0.02 0.02 0.02 0.02 0.02 0.02 0.01 0.01 0.01 0.01 0.01 0.02 0.04 0.05 0.03 0.01 0.01 0.01 0.02 0.02 0.02 0.02 0.01
0.00 0.00 0.00 0.01 0.01 0.02 0.02 0.02 0.02 0.02 0.02 0.02 0.02 0.04 0.05 0.06 0.06 0.05 0.03 0.02 0.03 0.03 0.02 0.01 0.01 0.01 0.01 0.01 0.01 0.01 0.01 0.02 0.03 0.05 0.05 0.03 0.01 0.01 0.01 0.01 0.02 0.02 0.02
0.00 0.00 0.00 0.01 0.01 0.02 0.04 0.03 0.02 0.02 0.02 0.01 0.01 0.02 0.03 0.05 0.07 0.06 0.04 0.04 0.04 0.03 0.02 0.01 0.01 0.01 0.01 0.01 0.01 0.01 0.01 0.01 0.02 0.03 0.05 0.04 0.02 0.01 0.01 0.01 0.01 0.03 0.02
0.00 0.01 0.01 0.01 0.01 0.02 0.03 0.03 0.03 0.02 0.02 0.01 0.01 0.01 0.01 0.02 0.05 0.06 0.04 0.03 0.04 0.04 0.02 0.01 0.01 0.01 0.01 0.01 0.01 0.01 0.01 0.01 0.01 0.02 0.02 0.04 0.03 0.02 0.01 0.01 0.01 0.03 0.03
0.01 0.02 0.02 0.01 0.01 0.02 0.03 0.03 0.02 0.01 0.01 0.01 0.01 0.00 0.00 0.01 0.02 0.03 0.04 0.02 0.02 0.02 0.02 0.01 0.01 0.01 0.01 0.01 0.01 0.01 0.01 0.01 0.01 0.01 0.01 0.02 0.02 0.03 0.02 0.01 0.02 0.03 0.04
0.01 0.02 0.03 0.03 0.03 0.03 0.03 0.03 0.01 0.01 0.01 0.01 0.01 0.00 0.00 0.00 0.01 0.01 0.02 0.02 0.01 0.01 0.01 0.01 0.01 0.01 0.00 0.01 0.01 0.01 0.01 0.01 0.01 0.01 0.01 0.01 0.02 0.04 0.04 0.02 0.02 0.02 0.02
0.00 0.00 0.01 0.02 0.02 0.02 0.03 0.03 0.01 0.01 0.01 0.01 0.01 0.01 0.00 0.00 0.01 0.01 0.02 0.02 0.01 0.01 0.01 0.01 0.01 0.01 0.01 0.01 0.01 0.01 0.02 0.02 0.01 0.01 0.01 0.01 0.02 0.03 0.04 0.03 0.03 0.03 0.03
0.00 0.00 0.00 0.00 0.01 0.01 0.01 0.02 0.02 0.02 0.02 0.01 0.01 0.01 0.01 0.01 0.01 0.01 0.02 0.02 0.02 0.02 0.02 0.01 0.01 0.01 0.01 0.01 0.01 0.01 0.01 0.01 0.01 0.01 0.01 0.01 0.01 0.02 0.03 0.03 0.02 0.03 0.03
0.00 0.00 0.00 0.00 0.00 0.01 0.01 0.01 0.02 0.02 0.01 0.01 0.01 0.01 0.01 0.01 0.01 0.01 0.02 0.03 0.03 0.02 0.03 0.02 0.01 0.01 0.01 0.01 0.01 0.01 0.01 0.01 0.01 0.01 0.01 0.01 0.02 0.01 0.01 0.02 0.02 0.03 0.04
0.00 0.00 0.01 0.01 0.01 0.01 0.01 0.01 0.01 0.02 0.02 0.01 0.01 0.01 0.01 0.01 0.02 0.02 0.02 0.03 0.04 0.04 0.03 0.03 0.02 0.01 0.01 0.01 0.01 0.01 0.01 0.01 0.01 0.00 0.01 0.01 0.02 0.02 0.01 0.01 0.02 0.02 0.03
0.00 0.00 0.00 0.01 0.01 0.01 0.01 0.01 0.01 0.01 0.01 0.01 0.01 0.01 0.01 0.01 0.02 0.02 0.02 0.02 0.03 0.04 0.05 0.05 0.04 0.03 0.02 0.02 0.01 0.01 0.01 0.01 0.01 0.01 0.01 0.01 0.01 0.02 0.01 0.01 0.01 0.01 0.02
0.00 0.00 0.00 0.01 0.01 0.01 0.01 0.01 0.01 0.01 0.01 0.01 0.01 0.01 0.02 0.01 0.01 0.02 0.02 0.02 0.02 0.02 0.02 0.04 0.05 0.05 0.04 0.03 0.03 0.02 0.01 0.01 0.01 0.01 0.01 0.01 0.01 0.02 0.02 0.02 0.01 0.01 0.01
MSLP
1006.39 1006.45 1006.62 1006.91 1007.33 1007.89 1008.57 1009.36 1010.19 1011.03 1011.79 1012.44 1012.96 1013.33 1013.59 1013.80 1014.00 1014.27 1014.64 1015.13 1015.73 1016.41 1017.13 1017.84 1018.52 1019.13 1019.69 1020.22 1020.74 1021.28 1021.87 1022.49 1023.13 1023.75 1024.31 1024.77 1025.11 1025.32 1025.41 1025.42 1025.37 1025.31 1025.27
1005.81 1005.86 1005.99 1006.23 1006.60 1007.11 1007.78 1008.58 1009.47 1010.40 1011.29 1012.08 1012.73 1013.23 1013.58 1013.83 1014.04 1014.29 1014.63 1015.08 1015.66 1016.34 1017.07 1017.82 1018.52 1019.17 1019.75 1020.27 1020.77 1021.27 1021.81 1022.39 1023.01 1023.63 1024.22 1024.74 1025.16 1025.47 1025.66 1025.76 1025.80 1025.80 1025.80
1005.11 1005.15 1005.26 1005.47 1005.80 1006.28 1006.92 1007.73 1008.68 1009.69 1010.69 1011.61 1012.40 1013.01 1013.46 1013.77 1014.02 1014.27 1014.58 1015.02 1015.58 1016.25 1017.00 1017.77 1018.51 1019.18 1019.77 1020.28 1020.75 1021.20 1021.67 1022.18 1022.74 1023.33 1023.92 1024.47 1024.96 1025.36 1025.66 1025.87 1026.01 1026.11 1026.19
1004.30 1004.34 1004.46 1004.65 1004.96 1005.43 1006.06 1006.88 1007.86 1008.93 1010.02 1011.05 1011.95 1012.68 1013.22 1013.60 1013.89 1014.16 1014.48 1014.91 1015.47 1016.14 1016.91 1017.71 1018.48 1019.18 1019.78 1020.29 1020.73 1021.13 1021.52 1021.96 1022.44 1022.96 1023.52 1024.07 1024.59 1025.05 1025.44 1025.75 1026.00 1026.21 1026.38
1003.41 1003.49 1003.64 1003.86 1004.18 1004.64 1005.28 1006.09 1007.08 1008.18 1009.33 1010.43 1011.41 1012.22 1012.85 1013.31 1013.65 1013.96 1014.30 1014.74 1015.31 1016.00 1016.79 1017.63 1018.44 1019.18 1019.81 1020.33 1020.75 1021.10 1021.43 1021.78 1022.18 1022.62 1023.11 1023.62 1024.14 1024.62 1025.06 1025.44 1025.79 1026.09 1026.37
1002.52 1002.68 1002.90 1003.18 1003.54 1004.02 1004.65 1005.45 1006.42 1007.52 1008.66 1009.79 1010.81 1011.68 1012.36 1012.88 1013.29 1013.64 1014.02 1014.49 1015.09 1015.81 1016.64 1017.51 1018.37 1019.16 1019.83 1020.38 1020.80 1021.14 1021.42 1021.70 1022.00 1022.35 1022.76 1023.20 1023.66 1024.13 1024.57 1025.00 1025.40 1025.79 1026.16
1001.72 1001.99 1002.31 1002.68 1003.10 1003.61 1004.24 1005.02 1005.94 1006.98 1008.08 1009.17 1010.19 1011.07 1011.79 1012.35 1012.81 1013.22 1013.65 1014.16 1014.79 1015.55 1016.41 1017.33 1018.24 1019.08 1019.81 1020.40 1020.85 1021.19 1021.45 1021.68 1021.91 1022.18 1022.49 1022.84 1023.23 1023.64 1024.06 1024.49 1024.91 1025.35 1025.79
1001.07 1001.47 1001.93 1002.41 1002.91 1003.46 1004.08 1004.81 1005.66 1006.61 1007.62 1008.63 1009.59 1010.44 1011.16 1011.76 1012.26 1012.72 1013.20 1013.76 1014.43 1015.22 1016.11 1017.07 1018.02 1018.91 1019.69 1020.33 1020.83 1021.20 1021.47 1021.68 1021.87 1022.07 1022.30 1022.56 1022.87 1023.21 1023.58 1023.97 1024.40 1024.86 1025.34
1000.61 1001.16 1001.75 1002.35 1002.93 1003.52 1004.13 1004.81 1005.56 1006.39 1007.28 1008.18 1009.05 1009.85 1010.55 1011.15 1011.69 1012.19 1012.72 1013.32 1014.02 1014.83 1015.74 1016.71 1017.69 1018.61 1019.44 1020.13 1020.69 1021.11 1021.42 1021.64 1021.82 1021.99 1022.16 1022.36 1022.60 1022.87 1023.18 1023.54 1023.94 1024.39 1024.89
1000.35 1001.03 1001.74 1002.44 1003.10 1003.72 1004.32 1004.93 1005.59 1006.29 1007.05 1007.82 1008.59 1009.32 1009.99 1010.60 1011.15 1011.69 1012.25 1012.88 1013.60 1014.42 1015.32 1016.28 1017.25 1018.19 1019.04 1019.78 1020.39 1020.87 1021.24 1021.51 1021.71 1021.89 1022.05 1022.22 1022.41 1022.63 1022.90 1023.22 1023.60 1024.03 1024.52
1000.25 1001.02 1001.83 1002.60 1003.31 1003.95 1004.53 1005.09 1005.65 1006.25 1006.88 1007.55 1008.23 1008.90 1009.53 1010.13 1010.71 1011.28 1011.87 1012.51 1013.22 1014.01 1014.88 1015.80 1016.74 1017.66 1018.51 1019.28 1019.93 1020.47 1020.91 1021.25 1021.51 1021.73 1021.92 1022.10 1022.29 1022.50 1022.75 1023.05 1023.40 1023.82 1024.29
1000.27 1001.08 1001.92 1002.73 1003.46 1004.10 1004.66 1005.17 1005.67 1006.19 1006.74 1007.33 1007.94 1008.56 1009.19 1009.79 1010.39 1010.98 1011.58 1012.22 1012.91 1013.66 1014.47 1015.33 1016.21 1017.07 1017.90 1018.67 1019.35 1019.95 1020.45 1020.87 1021.21 1021.50 1021.75 1021.98 1022.21 1022.44 1022.70 1023.00 1023.34 1023.74 1024.19
1000.37 1001.15 1001.97 1002.76 1003.47 1004.10 1004.64 1005.12 1005.59 1006.06 1006.57 1007.11 1007.70 1008.31 1008.94 1009.56 1010.18 1010.79 1011.40 1012.03 1012.69 1013.39 1014.12 1014.89 1015.69 1016.49 1017.27 1018.01 1018.71 1019.34 1019.90 1020.40 1020.83 1021.21 1021.54 1021.83 1022.12 1022.39 1022.69 1023.01 1023.36 1023.76 1024.19
1000.55 1001.23 1001.96 1002.68 1003.34 1003.92 1004.44 1004.91 1005.36 1005.83 1006.33 1006.88 1007.47 1008.11 1008.76 1009.41 1010.06 1010.69 1011.31 1011.92 1012.54 1013.18 1013.83 1014.52 1015.22 1015.95 1016.67 1017.38 1018.07 1018.72 1019.33 1019.89 1020.39 1020.85 1021.26 1021.63 1021.98 1022.32 1022.66 1023.01 1023.39 1023.79 1024.22
1000.80 1001.33 1001.92 1002.52 1003.08 1003.61 1004.09 1004.55 1005.00 1005.49 1006.02 1006.60 1007.23 1007.90 1008.59 1009.28 1009.96 1010.62 1011.24 1011.85 1012.43 1013.01 1013.60 1014.21 1014.83 1015.48 1016.14 1016.81 1017.48 1018.14 1018.77 1019.37 1019.93 1020.45 1020.93 1021.36 1021.78 1022.17 1022.56 1022.95 1023.35 1023.77 1024.19
1001.17 1001.51 1001.91 1002.34 1002.78 1003.22 1003.65 1004.09 1004.55 1005.06 1005.63 1006.26 1006.94 1007.66 1008.39 1009.13 1009.84 1010.52 1011.15 1011.75 1012.31 1012.86 1013.40 1013.94 1014.51 1015.09 1015.70 1016.34 1016.98 1017.63 1018.27 1018.89 1019.48 1020.03 1020.55 1021.03 1021.48 1021.92 1022.35 1022.77 1023.20 1023.63 1024.07
1001.66 1001.78 1001.97 1002.22 1002.51 1002.83 1003.19 1003.59 1004.05 1004.58 1005.18 1005.85 1006.58 1007.34 1008.12 1008.89 1009.64 1010.34 1010.99 1011.59 1012.15 1012.67 1013.18 1013.69 1014.22 1014.77 1015.34 1015.94 1016.56 1017.20 1017.83 1018.45 1019.04 1019.61 1020.14 1020.65 1021.12 1021.58 1022.04 1022.49 1022.94 1023.39 1023.84
1002.27 1002.17 1002.15 1002.20 1002.31 1002.50 1002.77 1003.11 1003.55 1004.07 1004.69 1005.38 1006.14 1006.94 1007.75 1008.55 1009.32 1010.05 1010.72 1011.33 1011.89 1012.42 1012.93 1013.43 1013.94 1014.47 1015.02 1015.60 1016.21 1016.82 1017.44 1018.05 1018.63 1019.20 1019.73 1020.24 1020.73 1021.20 1021.66 1022.13 1022.60 1023.07 1023.54
1002.94 1002.64 1002.42 1002.27 1002.22 1002.26 1002.42 1002.68 1003.07 1003.57 1004.17 1004.87 1005.64 1006.45 1007.28 1008.11 1008.90 1009.65 1010.34 1010.98 1011.56 1012.10 1012.62 1013.12 1013.63 1014.16 1014.71 1015.28 1015.87 1016.48 1017.08 1017.68 1018.26 1018.81 1019.34 1019.85 1020.34 1020.82 1021.30 1021.78 1022.26 1022.75 1023.23
1003.59 1003.12 1002.72 1002.41 1002.20 1002.10 1002.14 1002.31 1002.62 1003.07 1003.65 1004.33 1005.09 1005.91 1006.76 1007.60 1008.42 1009.18 1009.90 1010.56 1011.16 1011.72 1012.25 1012.77 1013.29 1013.82 1014.37 1014.94 1015.52 1016.12 1016.72 1017.32 1017.89 1018.45 1018.99 1019.51 1020.01 1020.50 1020.99 1021.49 1021.99 1022.49 1022.99
1004.11 1003.53 1003.00 1002.55 1002.21 1001.98 1001.91 1001.98 1002.22 1002.61 1003.14 1003.80 1004.55 1005.37 1006.22 1007.08 1007.91 1008.70 1009.44 1010.11 1010.74 1011.31 1011.85 1012.38 1012.90 1013.43 1013.98 1014.55 1015.13 1015.74 1016.34 1016.95 1017.54 1018.12 1018.68 1019.22 1019.75 1020.27 1020.79 1021.30 1021.82 1022.33 1022.84
1004.43 1003.79 1003.18 1002.64 1002.19 1001.87 1001.70 1001.69 1001.86 1002.19 1002.68 1003.31 1004.05 1004.86 1005.72 1006.59 1007.45 1008.25 1009.01 1009.70 1010.33 1010.91 1011.45 1011.97 1012.48 1013.00 1013.54 1014.11 1014.69 1015.30 1015.93 1016.56 1017.18 1017.80 1018.41 1019.00 1019.57 1020.13 1020.68 1021.22 1021.76 1022.28 1022.80
1004.52 1003.86 1003.22 1002.63 1002.13 1001.74 1001.51 1001.43 1001.54 1001.82 1002.28 1002.89 1003.61 1004.43 1005.30 1006.19 1007.06 1007.88 1008.65 1009.34 1009.97 1010.54 1011.06 1011.56 1012.05 1012.55 1013.07 1013.62 1014.21 1014.83 1015.48 1016.14 1016.81 1017.48 1018.14 1018.79 1019.42 1020.03 1020.62 1021.19 1021.74 1022.28 1022.79
1004.41 1003.77 1003.13 1002.54 1002.02 1001.61 1001.33 1001.21 1001.28 1001.54 1001.97 1002.56 1003.28 1004.10 1004.98 1005.88 1006.76 1007.59 1008.36 1009.05 1009.67 1010.21 1010.71 1011.17 1011.63 1012.10 1012.59 1013.13 1013.71 1014.34 1015.01 1015.70 1016.42 1017.14 1017.86 1018.56 1019.25 1019.91 1020.54 1021.13 1021.70 1022.24 1022.75
1004.15 1003.56 1002.97 1002.40 1001.89 1001.48 1001.19 1001.06 1001.10 1001.33 1001.74 1002.32 1003.04 1003.86 1004.74 1005.65 1006.53 1007.37 1008.13 1008.81 1009.40 1009.92 1010.38 1010.81 1011.23 1011.66 1012.13 1012.65 1013.22 1013.85 1014.53 1015.26 1016.01 1016.77 1017.53 1018.28 1019.00 1019.69 1020.35 1020.97 1021.54 1022.08 1022.58
1003.84 1003.32 1002.79 1002.27 1001.79 1001.39 1001.11 1000.97 1001.00 1001.21 1001.60 1002.16 1002.86 1003.67 1004.55 1005.45 1006.32 1007.15 1007.90 1008.56 1009.13 1009.63 1010.06 1010.46 1010.85 1011.26 1011.71 1012.21 1012.78 1013.40 1014.09 1014.82 1015.58 1016.35 1017.13 1017.89 1018.63 1019.34 1020.00 1020.63 1021.20 1021.74 1022.23
Thickness
5731 5730 5728 5725 5722 5720 5718 5716 5713 5711 5709 5706 5704 5702 5701 5700 5699 5697 5696 5694 5694 5693 5691 5691 5690 5688 5688 5687 5687 5685 5684 5683 5684 5682 5681 5681 5682 5682 5681 5681 5681 5681 5681
5727 5725 5724 5721 5719 5717 5715 5713 5711 5708 5706 5704 5702 5700 5698 5696 5695 5693 5691 5690 5690 5688 5687 5686 5684 5682 5681 5681 5681 5680 5679 5679 5679 5679 5677 5675 5675 5675 5677 5676 5675 5676 5676
5724 5723 5721 5719 5717 5714 5712 5711 5708 5707 5704 5702 5699 5696 5694 5693 5691 5689 5687 5686 5685 5684 5682 5681 5680 5678 5677 5676 5676 5676 5674 5673 5674 5676 5674 5673 5670 5669 5671 5671 5671 5670 5670
5723 5721 5719 5717 5715 5713 5712 5710 5707 5705 5702 5699 5696 5693 5690 5688 5687 5686 5684 5682 5681 5679 5678 5676 5675 5674 5673 5672 5672 5672 5671 5669 5669 5669 5669 5672 5670 5666 5664 5665 5666 5665 5665
5721 5719 5718 5716 5714 5712 5709 5707 5704 5702 5699 5697 5693 5691 5689 5686 5685 5683 5680 5679 5677 5675 5673 5672 5671 5670 5668 5667 5667 5667 5667 5667 5666 5665 5664 5664 5664 5666 5663 5659 5659 5660 5660
5719 5717 5716 5714 5711 5708 5705 5703 5701 5698 5695 5693 5691 5689 5686 5683 5680 5678 5676 5675 5674 5671 5670 5668 5667 5666 5664 5664 5662 5662 5661 5662 5661 5661 5661 5660 5659 5658 5658 5657 5655 5655 5655
5717 5714 5711 5708 5705 5703 5701 5699 5697 5694 5693 5690 5689 5686 5684 5681 5678 5676 5674 5672 5670 5668 5666 5665 5663 5662 5660 5659 5658 5658 5658 5658 5656 5656 5656 5656 5655 5654 5653 5652 5652 5650 5650
5713 5710 5708 5705 5703 5700 5698 5696 5694 5692 5690 5688 5686 5684 5681 5678 5676 5673 5672 5669 5668 5666 5663 5661 5660 5658 5656 5655 5654 5654 5654 5653 5653 5652 5651 5651 5650 5649 5648 5647 5646 5645 5645
5707 5705 5704 5702 5700 5697 5695 5693 5692 5690 5687 5685 5683 5681 5678 5675 5673 5671 5669 5667 5665 5662 5660 5658 5657 5654 5652 5651 5651 5650 5650 5649 5648 5648 5647 5646 5645 5643 5642 5642 5641 5640 5639
5702 5701 5699 5698 5697 5695 5693 5691 5689 5687 5684 5682 5680 5677 5674 5672 5669 5667 5665 5663 5661 5659 5657 5654 5653 5651 5649 5648 5646 5646 5645 5645 5643 5642 5642 5641 5640 5639 5637 5636 5635 5635 5634
5697 5696 5695 5694 5692 5691 5689 5687 5685 5683 5680 5678 5676 5673 5671 5668 5666 5663 5661 5659 5657 5655 5653 5651 5649 5647 5645 5644 5642 5641 5640 5640 5639 5639 5638 5637 5636 5634 5633 5631 5630 5629 5629
5693 5692 5690 5689 5687 5686 5685 5684 5682 5679 5676 5674 5672 5669 5667 5664 5662 5659 5657 5655 5653 5651 5649 5647 5645 5643 5641 5640 5639 5637 5636 5636 5635 5634 5634 5633 5631 5630 5629 5627 5626 5625 5625
5688 5687 5685 5683 5682 5681 5679 5679 5677 5674 5672 5669 5667 5664 5662 5659 5657 5655 5653 5651 5649 5647 5644 5643 5640 5638 5637 5636 5635 5634 5633 5632 5631 5631 5630 5630 5629 5627 5626 5624 5622 5621 5621
5683 5681 5679 5678 5676 5675 5675 5674 5672 5669 5667 5664 5662 5659 5657 5654 5652 5650 5648 5646 5644 5642 5640 5638 5636 5634 5632 5631 5630 5629 5629 5628 5627 5627 5626 5626 5626 5625 5623 5621 5619 5617 5616
5676 5675 5674 5673 5671 5669 5669 5668 5666 5664 5662 5659 5657 5654 5652 5650 5647 5644 5642 5641 5639 5637 5636 5634 5632 5630 5628 5627 5625 5625 5624 5624 5623 5622 5622 5621 5620 5618 5617 5616 5615 5613 5612
5671 5671 5670 5668 5666 5665 5664 5663 5661 5659 5658 5655 5652 5650 5647 5644 5642 5639 5637 5635 5633 5632 5630 5628 5627 5625 5623 5620 5618 5618 5619 5620 5619 5618 5617 5616 5614 5613 5610 5609 5608 5607 5608
5665 5664 5664 5663 5662 5661 5660 5657 5656 5655 5653 5650 5647 5645 5642 5639 5636 5633 5631 5629 5628 5626 5624 5622 5621 5620 5618 5614 5612 5611 5613 5614 5614 5614 5613 5612 5611 5608 5609 5606 5603 5602 5601
5659 5659 5659 5658 5657 5656 5654 5653 5651 5649 5647 5644 5641 5639 5636 5633 5630 5627 5625 5623 5622 5621 5619 5617 5616 5615 5613 5610 5608 5606 5608 5609 5609 5609 5609 5608 5607 5605 5604 5604 5602 5601 5599
5654 5654 5654 5653 5652 5650 5649 5647 5645 5643 5640 5638 5636 5633 5630 5627 5624 5621 5619 5618 5617 5615 5613 5612 5611 5610 5609 5605 5603 5601 5603 5604 5604 5604 5603 5602 5602 5598 5597 5598 5598 5596 5595
5648 5648 5648 5647 5645 5644 5642 5640 5639 5637 5635 5633 5631 5628 5625 5622 5619 5617 5615 5613 5611 5609 5608 5607 5606 5605 5604 5601 5598 5597 5599 5600 5599 5598 5597 5594 5594 5592 5590 5593 5593 5592 5591
5641 5641 5640 5639 5638 5637 5635 5634 5633 5631 5630 5628 5625 5623 5621 5617 5615 5613 5611 5609 5607 5605 5603 5602 5602 5601 5599 5596 5593 5592 5594 5594 5593 5593 5592 5591 5587 5586 5585 5585 5587 5585 5584
5633 5633 5633 5632 5631 5630 5629 5628 5627 5626 5623 5621 5619 5618 5616 5613 5610 5608 5605 5604 5602 5600 5598 5597 5597 5596 5594 5591 5589 5587 5586 5587 5588 5587 5587 5585 5581 5580 5579 5579 5578 5577 5576
5626 5626 5625 5624 5624 5624 5623 5622 5621 5618 5616 5614 5613 5611 5610 5607 5605 5602 5600 5598 5597 5596 5594 5593 5591 5590 5589 5587 5583 5581 5580 5579 5580 5581 5579 5577 5575 5574 5573 5572 5571 5570 5571
5618 5619 5618 5617 5617 5617 5616 5616 5614 5612 5610 5608 5607 5606 5604 5601 5598 5596 5594 5592 5591 5590 5589 5587 5586 5585 5583 5581 5579 5577 5576 5573 5573 5573 5572 5569 5568 5567 5567 5567 5567 5566 5566
5611 5611 5611 5611 5610 5610 5609 5608 5607 5605 5603 5602 5601 5599 5597 5594 5592 5590 5587 5586 5585 5583 5581 5580 5579 5578 5577 5574 5571 5571 5571 5570 5569 5568 5567 5567 5566 5565 5565 5564 5563 5562 5560
5604 5604 5604 5604 5604 5603 5602 5600 5599 5597 5596 5595 5593 5592 5589 5587 5585 5583 5580 5576 5575 5573 5571 5569 5568 5568 5566 5564 5562 5561 5560 5559 5559 5559 5561 5561 5561 5560 5559 5558 5557 5556 5554